User: anonymous   Login
Location: Unspecified
(0.0000°N, 0.0000°E)
Time: 19:16:42
(UTC+00:00)
Language:

STARLINK-11362 [DTC] - Orbit

View from above orbital plane
View from above orbital plane
View from above satellite
View from above satellite

Ground track
Ground track

The orbit is defined by the following mean orbital elements,

1 61535U          26145.37565125 +.00000000 +00000-0 +97622-5 0 00006
2 61535  53.1590 218.0872 0001135  87.3241 272.7907 15.69708717    03
Epoch (UTC): 25 May 2026 09:00:56
Eccentricity: 0.0001135
inclination: 53.1590°
perigee height: 359 km
apogee height: 360 km
right ascension of ascending node: 218.0872°
argument of perigee: 87.3241°
revolutions per day: 15.69708717
mean anomaly at epoch: 272.7907°

The dashed part of the orbit path shows where the satellite is in the earth's shadow,  

DLR